Weather in Kurtlykul'

Russia / Republic of Bashkortostan     55°42′56″N   56°21′51″E
temp.,
°C
wind,
m/s
gust,
m/s
humid.,
%
clouds,
%
prec.,
mm/h
press.,
hPa
HPBL,
m
21 june, mon
mon2123:00+13n37630 0.0 1020105
02:00+11ne34710 0.0 102148
05:00+11nne23595 0.0 102380
08:00+14ne23604 0.0 1024209
11:00+18nne224921 0.0 1024611
14:00+21nw114831 0.0 1023818
17:00+21w3356100 0.0 1022924
20:00+19ssw2378100 0.1 1021164
22 june, tue
tue2223:00+15ssw34814 0.1 102148
02:00+14ssw33885 0.0 102134
05:00+13ssw34935 0.0 102049
08:00+19sw33825 0.0 1020209
11:00+24w567181 0.0 1020685
14:00+27wnw566265 0.1 10191302
17:00+29nw48575 0.3 10192304
20:00+24w61077100 0.1 1018265
23 june, wed
wed2323:00+20w456112 0.4 101865
02:00+18wnw229095 0.4 101815
05:00+18wnw339236 0.4 101838
08:00+21nw238464 0.7 1018239
11:00+25n3371100 0.7 1018710
14:00+26nne3363100 0.0 10181125
17:00+24ne346987 0.6 1018718
20:00+19sse149292 1.7 1018198
24 june, thu
thu2423:00+15e37945 1.8 1020134
02:00+13e34915 0.0 102068
05:00+12e359058 0.0 102076
08:00+16ese37765 0.0 1020213
11:00+21ese234540 0.0 1019686
14:00+24n113957 0.0 1018913
17:00+24nw23489 0.0 1018985
20:00+23w11715 0.0 101618
25 june, fri
fri2523:00+18ssw227945 0.0 101616
02:00+17ssw3484100 0.0 101555
05:00+17ssw4887100 0.0 1014143
08:00+20wsw468427 0.0 1014315
11:00+24w446943 0.0 1012681
14:00+27w446518 0.0 10121171
17:00+27nw456212 0.1 10111402
20:00+25nnw128160 1.6 101091